Flag for South Korea Weather past 2 weeks in Gunsan, South Korea

Now
51 °F

Sunny.


Feels Like: 47 °F
Forecast: 47 / 61 °F
Wind: 9 mph from Southeast

Location: Kunsan Ab

Current Time: Apr 22, 2015 at 8:37:02 AM

Latest Report: Apr 22, 2015 at 7:58 AM


Visibility: 10 mi

Pressure: 30.08 "Hg

Humidity: 63%

Dew point: 39 °F

Location of GunsanLocation

Historic Weather in Gunsan — Graph

°F

Gunsan temperature yesterday

Maximum temperature yesterday: 58 °F (at 11:58 AM)
Minimum temperature yesterday: 42 °F (at 5:58 AM)
Average temperature yesterday: 50 °F

Past Weeks' High & Low Weather Summary

 TemperatureHumidityPressure
High71 °F (Apr 18, 2:58 PM)100% (Apr 14, 1:04 AM)30.34 "Hg (Apr 14, 1:04 AM)
Low39 °F (Apr 18, 5:58 AM)28% (Apr 18, 2:58 PM)29.54 "Hg (Apr 20, 4:59 AM)
Average52 °F74%30.02 "Hg
* Reported Apr 7 6:58 AM — Apr 22 6:58 AM, Gunsan, Weather by CustomWeather, © 2015

Note: Actual official high and low records may vary slightly from our data, if they occured in-between our weather recording intervals... More about our weather records

Advertising

Gunsan weather history for previous 24 hours

 ConditionsComfort  
Time TempWeatherWind HumidityBarometerVisibility
6:58 AM
Wed, Apr 22
47 °FScattered clouds.6 mph86%30.09 "Hg8 mi
5:58 AM47 °FScattered clouds.7 mph85%30.09 "Hg8 mi
4:58 AM47 °FClear.2 mph90%30.10 "Hg10 mi
3:58 AM47 °FClear.8 mph91%30.06 "Hg10 mi
2:58 AM48 °FClear.6 mph85%30.07 "Hg10 mi
1:58 AM50 °FClear.3 mph78%30.09 "Hg10 mi
12:58 AM47 °FClear.2 mph78%30.09 "Hg10 mi
11:58 PM
Tue, Apr 21
49 °FClear.No wind72%30.08 "Hg10 mi
10:58 PM50 °FClear.6 mph69%30.08 "Hg10 mi
9:58 PM50 °FClear.No wind67%30.08 "Hg10 mi
8:58 PM51 °FClear.5 mph67%30.07 "Hg10 mi
7:58 PM50 °FClear.3 mph74%30.05 "Hg10 mi
6:58 PM52 °FSunny.7 mph70%30.04 "Hg10 mi
5:58 PM53 °FSunny.7 mph70%30.02 "Hg10 mi
4:58 PM54 °FSunny.8 mph69%30.02 "Hg10 mi
3:58 PM55 °FSunny.10 mph66%30.02 "Hg10 mi
2:58 PM56 °FScattered clouds.12 mph61%30.02 "Hg10 mi
1:58 PM57 °FScattered clouds.9 mph57%30.03 "Hg10 mi
12:58 PM56 °FPassing clouds.12 mph68%30.04 "Hg10 mi
11:58 AM58 °FPassing clouds.10 mph72%30.05 "Hg10 mi
10:58 AM57 °FSunny.7 mph78%30.05 "Hg10 mi
9:58 AM55 °FSunny.6 mph91%30.04 "Hg10 mi
8:58 AM50 °FFog.No wind100%30.04 "Hg3 mi
Weather by CustomWeather, © 2015

See weather overviewHow to use our weather pages